User: anonymous   Login
Location: Unspecified
(0.0000°N, 0.0000°E)
Time: 05:21:08
(UTC+00:00)
Language:

OPTUS D2 - Orbit

View from above orbital plane
View from above orbital plane
View from above satellite
View from above satellite

Ground track
Ground track

The orbit data is extracted from the following two-line orbital elements,

1 32252U 07044A   21215.74674056 -.00000180  00000-0  00000+0 0  9998
2 32252   0.0589 269.4608 0003612 230.5274 233.3626  1.00270676 50614
Epoch (UTC): 03 August 2021 17:55:18
Eccentricity: 0.0003612
inclination: 0.0589°
perigee height: 35771 km
apogee height: 35802 km
right ascension of ascending node: 269.4608°
argument of perigee: 230.5274°
revolutions per day: 1.00270676
mean anomaly at epoch: 233.3626°
orbit number at epoch: 5061

The dashed part of the orbit path shows where the satellite is in the earth's shadow,  

DLR